STARLINK-1307, 45397

Orbit data source: Space-Track

STARLINK-1307, 45397 is a payload satellite owned by SpaceX/Seattle (US) in LEO that was launched on Wed, 18 Mar 2020 UTC via an FALCON 9 launch vehicle from the Air Force Eastern Test Range (AFETR). Payload-class satellites include a variety of spacecraft equipped with specific instruments for various scientific and technological missions. These include communications satellites like Starlink; space stations such as the ISS; scientific satellites like the Hubble; Earth observation satellites from companies like Planet Labs, Umbra, and HawkEye 360; GPS; miniature CubeSats for education and research; and military/defense satellites.

Loading next visibility...
Identifier
45397, 2020-019AP
Orbit
LEO
Country
Flag of USUS
Related business
Manufacturer
SpaceX/Seattle
Mission
Operational Commercial Communications
Bus & Motor
STARLINK, Unknown motor
Mass
260 kg wet, ~248 kg dry
Launch date (UTC)
2020-03-18 (6 years ago)
Launch vehicle
FALCON 9
Launch site
Air Force Eastern Test Range (AFETR)
Object type
Payload
Rocket body
Debris
Shape & HBR
Box + 1 Pan, 10.1 m
Radar Cross Section
13.562 m², Large (>1 m²)

Expand to show TLE details & history
Last TLE update: 1 day ago

TLE from 1 day ago
0 STARLINK-1307
1 45397U 20019AP  25302.61451320  .00015377  00000-0  10478-2 0  9999
2 45397  53.0557  15.0355 0001422  87.8957 272.2195 15.06440674310073
Epoch: 2025-10-29T14:44Z
TLE epoch observation values (Epoch: 2025-10-29T14:44:53.940Z)
Latitude
-0.00001°
Longitude
115.62562°
Altitude
547.928 km
Speed
7.589 km/s
True Right ascension
01h 00m 08s
True Declination
0° 00' 00"
Sunlit
Object was in full shadow at epoch
Visualization orbit readout
Latitude
Unknown
Longitude
Unknown
Altitude
Unknown
Speed
Unknown
Apparent Right ascension
Unknown
Apparent Declination
Unknown
Sunlit
N/A
Visualization observer readout
Local Sidereal Time
12:02:39
Azimuth
Unknown
Elevation
Unknown
Doppler factor
Unknown
Orbital elements
Apogee altitude
548.342 km
Perigee altitude
546.373 km
Semi-major axis
6,925.494 km
Eccentricity
0.00014
Inclination
53.0557°
RAAN
15.0355°
Arg. of periapsis
87.8957°
True anomaly
272.20322°
Mean anomaly
272.2195°
Eccentric anomaly
272.21136°
Mean motion
3.76588 °/min
Orbital period
95.6 mins
BSTAR
0.0010478
Loading maneuver chart data...
Computing Atmospheric mass density...
Loading historical data...
Loading historical data...
Loading historical data...
Loading historical data...
Loading historical data...
Loading historical data...
Loading historical data...

Documentation

Showing up to 5 results
|